Simultaneous Nadir Overpasses (SNOs) Predictions

Prediction of SNOs between METOP-C and LANDSAT-8 Satellite Orbit:

Table of predicted SNOs for the next 14.0 days since TLE Epoch: 3/16/2024
Index Date (METOP-C) Time (METOP-C) Lat,Lon (METOP-C) SZA (METOP-C ) Date (LANDSAT-8) Time (LANDSAT-8) Lat,Lon (LANDSAT-8) SZA (LANDSAT-8 ) Distance(km) Time Diff (sec)
1 03/16/2024 04:13:18 81.14, 156.31 84.50 03/16/2024 04:13:28 81.14, 156.31 84.50 0.34 10
2 03/16/2024 05:03:57 -81.17, -35.32 95.40 03/16/2024 05:02:53 -81.17, -35.45 95.43 2.23 64
3 03/18/2024 22:57:16 -80.88, 49.43 97.33 03/18/2024 22:58:30 -80.74, 49.86 97.38 17.38 74
4 03/18/2024 23:47:39 81.15,-137.08 83.43 03/18/2024 23:47:41 81.14,-137.16 83.42 1.48 2
5 03/19/2024 00:38:19 -81.17, 30.92 96.51 03/19/2024 00:37:07 -81.16, 30.74 96.56 3.22 72
6 03/21/2024 18:31:21 -81.13, 121.46 97.71 03/21/2024 18:32:27 -81.13, 121.46 97.69 0.26 66
7 03/21/2024 19:22:00 81.14, -70.91 82.31 03/21/2024 19:21:53 81.14, -70.82 82.32 1.56 7
8 03/24/2024 14:05:42 -81.13,-172.06 98.79 03/24/2024 14:06:39 -81.14,-171.99 98.76 1.37 57
9 03/24/2024 14:56:21 81.14, -4.42 81.24 03/24/2024 14:56:05 81.14, -4.30 81.24 2.13 16
10 03/27/2024 09:40:03 -81.13,-105.65 99.87 03/27/2024 09:40:51 -81.13,-105.63 99.85 0.37 48



Historial Predications of SNOs between METOP-C and LANDSAT-8
